Regional Weather Roundup
Issued by NWS

Home | Current Version | Previous Version | Graphics & Text | Print | Product List | Glossary On
Versions: 1 2 3 4 5 6 7 8 9 10 11 12 13 14 15 16 17 18 19 20 21 22 23 24 25 26 27 28 29 30 31 32 33 34 35 36 37 38 39 40 41 42 43 44 45 46 47 48 49 50
000
ASUS43 KFSD 202010
RWRSD

WEATHER ROUNDUP FOR SOUTH DAKOTA
NATIONAL WEATHER SERVICE SIOUX FALLS SD
300 PM CDT MON APR 20 2015

NOTE: "FAIR" INDICATES FEW OR NO CLOUDS BELOW 12,000 FEET WITH NO
SIGNIFICANT WEATHER AND/OR OBSTRUCTIONS TO VISIBILITY.


SDZ001>005-009-010-012>017-202100-
NORTHWEST AND NORTH CENTRAL SOUTH DAKOTA

CITY           SKY/WX    TMP DP  RH WIND       PRES   REMARKS
BUFFALO          N/A     49  20  31 NW20G32   29.80F
FAITH            N/A     51  13  21 N30G40    29.82F
MOBRIDGE       SUNNY     55   3  12 NW29G41   29.73F
$$

SDZ012>016-024>037-041>051-057-063-072>074-202100-
SOUTHWEST AND SOUTH CENTRAL SOUTH DAKOTA

CITY           SKY/WX    TMP DP  RH WIND       PRES   REMARKS
RAPID CTY ARPT MOSUNNY   53  20  27 NW22G36   29.86F
PIERRE         SUNNY     55   1  11 NW30G44   29.78F
CUSTER         PTSUNNY   44  16  32 W15G21    29.86F
ELLSWORTH AFB  CLOUDY    51  20  28 N23G33    29.86F
PHILIP         PTSUNNY   53  32  44 NW29G38   29.84F
PINE RIDGE     PTSUNNY   51  19  28 W12G21    29.88F
SPEARFISH      FAIR      46  19  34 N17       29.89F
WINNER         MOCLDY    56  15  20 NW30G44   29.80F
$$

SDZ004>011-016>023-039-040-202100-
NORTHEAST SOUTH DAKOTA

CITY           SKY/WX    TMP DP  RH WIND       PRES   REMARKS
ABERDEEN       PTSUNNY   50  25  37 NW28G37   29.71S
WATERTOWN      CLOUDY    42  26  53 NW24G38   29.66F
BROOKINGS      CLOUDY    43  27  52 NW31G39   29.67S
SISSETON         N/A     39  29  67 NW25G31   29.64R
$$

SDZ017-020-022-023-036>040-048>070-202100-
SOUTHEAST SOUTH DAKOTA

CITY           SKY/WX    TMP DP  RH WIND       PRES   REMARKS
SIOUX FALLS    MOSUNNY   53  19  26 NW32G41   29.68S
HURON          SUNNY     54   7  15 NW33G43   29.70F
CHAMBERLAIN    SUNNY     53   4  13 NW28G41   29.78S
MITCHELL       SUNNY     56   1  10 NW38G51   29.73S
YANKTON        SUNNY    N/A N/A N/A NW33G45   29.72S
$$

ABBREVIATIONS USED IN REMARKS
   TC - TEMPERATURE IN CELSIUS
  WCI - WIND CHILL INDEX
   HX - HEAT INDEX
  VSB - VISIBILITY




USA.gov is the U.S. government's official web portal to all federal, state and local government web resources and services.